When you browse on this site, cookies collect data to enhance your experience and personalize the content and advertising you see.
Visit our Privacy Policy to learn more. By continuing to use the site, you agree to this use of cookies and data.
  • In Hungary
  • List of Countries
  • For 7 days
  • Water Temperature
  • Satellite Maps
  • Weather Map
  • News
  • Weather Widgets
  • user-avatar
    Login

    Hourly Weather Jacarezinho

    Today, 17 January, Thursday

    Time Temperature Precipitation Wind Pressure Humidity
    00:00 +23°C° 0 mm 0 mps 721 mmHg 89%
    01:00 +23°C° 0 mm 0 mps 721 mmHg 90%
    02:00 +23°C° 0 mm 0 mps 721 mmHg 91%
    03:00 +22°C° 0 mm 0 mps 721 mmHg 92%
    04:00 +22°C° 0 mm 0 mps 721 mmHg 92%
    05:00 +22°C° 0 mm 0 mps 721 mmHg 92%
    06:00 +22°C° 0 mm 0 mps 721 mmHg 93%
    07:00 +24°C° 0 mm 0 mps 721 mmHg 85%
    08:00 +27°C° 0 mm 0 mps 722 mmHg 77%
    09:00 +29°C° 0 mm 0 mps 722 mmHg 69%
    10:00 +32°C° 0 mm 1 mps 722 mmHg 64%
    11:00 +33°C° 0 mm 1 mps 722 mmHg 59%
    12:00 +35°C° 0 mm 2 mps 722 mmHg 54%
    13:00 +35°C° 0 mm 2 mps 721 mmHg 53%
    14:00 +36°C° 0 mm 2 mps 721 mmHg 52%
    15:00 +36°C° 0 mm 2 mps 721 mmHg 52%
    16:00 +35°C° 0 mm 2 mps 720 mmHg 57%
    17:00 +34°C° 0 mm 2 mps 720 mmHg 62%
    18:00 +32°C° 0 mm 1 mps 719 mmHg 67%
    19:00 +30°C° 1 mm 1 mps 720 mmHg 73%
    20:00 +29°C° 1 mm 1 mps 720 mmHg 80%
    21:00 +27°C° 1 mm 1 mps 720 mmHg 87%
    22:00 +26°C° 1 mm 1 mps 720 mmHg 89%
    23:00 +26°C° 1 mm 1 mps 721 mmHg 91%

    Tomorrow, 18 January, Friday

    Time Temperature Precipitation Wind Pressure Humidity
    00:00 +25°C° 1 mm 1 mps 721 mmHg 94%
    01:00 +25°C° 0.9 mm 1 mps 721 mmHg 94%
    02:00 +25°C° 0.9 mm 1 mps 721 mmHg 95%
    03:00 +23°C° 0.9 mm 0 mps 720 mmHg 95%
    04:00 +23°C° 0.2 mm 0 mps 720 mmHg 95%
    05:00 +22°C° 0.2 mm 0 mps 720 mmHg 94%
    06:00 +22°C° 0.2 mm 0 mps 720 mmHg 94%
    07:00 +23°C° 0.5 mm 0 mps 720 mmHg 91%
    08:00 +27°C° 0.5 mm 1 mps 721 mmHg 88%
    09:00 +28°C° 0.5 mm 1 mps 721 mmHg 84%
    10:00 +29°C° 1.5 mm 1 mps 721 mmHg 80%
    11:00 +30°C° 1.5 mm 1 mps 721 mmHg 76%
    12:00 +30°C° 1.5 mm 0 mps 721 mmHg 72%
    13:00 +31°C° 2.3 mm 1 mps 720 mmHg 74%
    14:00 +31°C° 2.3 mm 1 mps 719 mmHg 76%
    15:00 +30°C° 2.3 mm 1 mps 719 mmHg 78%
    16:00 +30°C° 0.9 mm 1 mps 719 mmHg 81%
    17:00 +29°C° 0.9 mm 1 mps 719 mmHg 83%
    18:00 +28°C° 0.9 mm 2 mps 719 mmHg 85%
    19:00 +27°C° 0 mm 1 mps 719 mmHg 87%
    20:00 +26°C° 0 mm 1 mps 719 mmHg 89%
    21:00 +23°C° 0 mm 0 mps 719 mmHg 90%
    22:00 +23°C° 0 mm 0 mps 719 mmHg 91%
    23:00 +24°C° 0 mm 1 mps 719 mmHg 91%

    Day after tomorrow, 19 January, Saturday

    Time Temperature Precipitation Wind Pressure Humidity
    00:00 +24°C° 0 mm 1 mps 719 mmHg 91%
    01:00 +24°C° 0 mm 1 mps 719 mmHg 92%
    02:00 +24°C° 0 mm 1 mps 718 mmHg 93%
    03:00 +24°C° 0 mm 1 mps 717 mmHg 94%
    04:00 +24°C° 0 mm 1 mps 718 mmHg 94%
    05:00 +23°C° 0 mm 1 mps 718 mmHg 95%
    06:00 +23°C° 0 mm 1 mps 718 mmHg 96%
    07:00 +25°C° 0 mm 1 mps 718 mmHg 89%
    08:00 +27°C° 0 mm 1 mps 719 mmHg 82%
    09:00 +29°C° 0 mm 2 mps 720 mmHg 75%
    10:00 +30°C° 0 mm 2 mps 720 mmHg 69%
    11:00 +31°C° 0 mm 2 mps 720 mmHg 64%
    12:00 +34°C° 0 mm 3 mps 719 mmHg 58%
    13:00 +33°C° 1 mm 3 mps 719 mmHg 64%
    14:00 +32°C° 1 mm 2 mps 718 mmHg 70%
    15:00 +31°C° 1 mm 2 mps 718 mmHg 76%
    16:00 +31°C° 0.6 mm 2 mps 718 mmHg 77%
    17:00 +30°C° 0.6 mm 2 mps 718 mmHg 77%
    18:00 +30°C° 0.6 mm 1 mps 718 mmHg 78%
    19:00 +29°C° 0.1 mm 1 mps 718 mmHg 82%
    20:00 +27°C° 0.1 mm 1 mps 718 mmHg 86%
    21:00 +26°C° 0.1 mm 1 mps 719 mmHg 89%
    22:00 +26°C° 0 mm 1 mps 719 mmHg 90%
    23:00 +25°C° 0 mm 1 mps 719 mmHg 91%

    20 January, Sunday

    Time Temperature Precipitation Wind Pressure Humidity
    00:00 +25°C° 0 mm 1 mps 719 mmHg 92%
    01:00 +25°C° 0 mm 1 mps 718 mmHg 92%
    02:00 +25°C° 0 mm 1 mps 718 mmHg 92%
    03:00 +25°C° 0 mm 1 mps 718 mmHg 92%
    04:00 +24°C° 0.2 mm 1 mps 718 mmHg 93%
    05:00 +24°C° 0.2 mm 1 mps 718 mmHg 93%
    06:00 +24°C° 0.2 mm 1 mps 719 mmHg 94%
    07:00 +25°C° 0.7 mm 2 mps 719 mmHg 92%
    08:00 +26°C° 0.7 mm 2 mps 720 mmHg 89%
    09:00 +28°C° 0.7 mm 2 mps 720 mmHg 87%
    10:00 +29°C° 0.5 mm 3 mps 720 mmHg 79%
    11:00 +30°C° 0.5 mm 3 mps 720 mmHg 70%
    12:00 +33°C° 0.5 mm 3 mps 720 mmHg 61%
    13:00 +33°C° 0.8 mm 3 mps 720 mmHg 66%
    14:00 +33°C° 0.8 mm 3 mps 719 mmHg 70%
    15:00 +32°C° 0.8 mm 2 mps 719 mmHg 74%
    16:00 +31°C° 1.2 mm 2 mps 718 mmHg 78%
    17:00 +30°C° 1.2 mm 1 mps 718 mmHg 81%
    18:00 +29°C° 1.2 mm 1 mps 718 mmHg 85%
    19:00 +28°C° 1.4 mm 1 mps 719 mmHg 86%
    20:00 +27°C° 1.4 mm 1 mps 719 mmHg 88%
    21:00 +24°C° 1.4 mm 0 mps 719 mmHg 90%
    22:00 +25°C° 0.6 mm 1 mps 720 mmHg 91%
    23:00 +25°C° 0.6 mm 1 mps 720 mmHg 92%

    21 January, Monday

    Time Temperature Precipitation Wind Pressure Humidity
    00:00 +25°C° 0.6 mm 1 mps 720 mmHg 93%
    01:00 +24°C° 1.1 mm 1 mps 719 mmHg 94%
    02:00 +24°C° 1.1 mm 1 mps 719 mmHg 96%
    03:00 +24°C° 1.1 mm 1 mps 719 mmHg 97%
    04:00 +24°C° 1.2 mm 1 mps 719 mmHg 97%
    05:00 +24°C° 1.2 mm 1 mps 719 mmHg 97%
    06:00 +24°C° 1.2 mm 1 mps 720 mmHg 97%
    07:00 +25°C° 0.6 mm 1 mps 720 mmHg 94%
    08:00 +27°C° 0.6 mm 2 mps 721 mmHg 90%
    09:00 +28°C° 0.6 mm 2 mps 721 mmHg 87%
    10:00 +29°C° 1.5 mm 2 mps 721 mmHg 83%
    11:00 +30°C° 1.5 mm 3 mps 721 mmHg 79%
    12:00 +31°C° 1.5 mm 3 mps 721 mmHg 74%
    13:00 +31°C° 0.5 mm 3 mps 721 mmHg 72%
    14:00 +33°C° 0.5 mm 3 mps 720 mmHg 69%
    15:00 +33°C° 0.5 mm 3 mps 720 mmHg 67%
    16:00 +31°C° 0.5 mm 2 mps 720 mmHg 72%
    17:00 +31°C° 0.5 mm 2 mps 720 mmHg 77%
    18:00 +30°C° 0.5 mm 2 mps 720 mmHg 83%
    19:00 +29°C° 0.6 mm 1 mps 720 mmHg 85%
    20:00 +27°C° 0.6 mm 1 mps 720 mmHg 88%
    21:00 +24°C° 0.6 mm 0 mps 720 mmHg 91%
    22:00 +24°C° 0 mm 0 mps 720 mmHg 91%
    23:00 +24°C° 0 mm 0 mps 720 mmHg 91%

    22 January, Tuesday

    Time Temperature Precipitation Wind Pressure Humidity
    00:00 +23°C° 0 mm 0 mps 721 mmHg 91%
    01:00 +23°C° 0.1 mm 0 mps 720 mmHg 91%
    02:00 +23°C° 0.1 mm 0 mps 720 mmHg 92%
    03:00 +23°C° 0.1 mm 0 mps 719 mmHg 92%
    04:00 +22°C° 1 mm 0 mps 720 mmHg 93%
    05:00 +22°C° 1 mm 0 mps 720 mmHg 93%
    06:00 +22°C° 1 mm 0 mps 720 mmHg 94%
    07:00 +24°C° 0.6 mm 0 mps 720 mmHg 90%
    08:00 +28°C° 0.6 mm 1 mps 721 mmHg 86%
    09:00 +29°C° 0.6 mm 1 mps 721 mmHg 81%
    10:00 +30°C° 1.2 mm 2 mps 721 mmHg 79%
    11:00 +31°C° 1.2 mm 2 mps 721 mmHg 77%
    12:00 +33°C° 1.2 mm 3 mps 721 mmHg 74%
    13:00 +31°C° 1.1 mm 3 mps 721 mmHg 74%
    14:00 +31°C° 1.1 mm 3 mps 720 mmHg 74%
    15:00 +31°C° 1.1 mm 3 mps 720 mmHg 73%
    16:00 +30°C° 0.5 mm 2 mps 720 mmHg 78%
    17:00 +29°C° 0.5 mm 1 mps 720 mmHg 82%
    18:00 +26°C° 0.5 mm 0 mps 719 mmHg 87%
    19:00 +26°C° 0 mm 0 mps 720 mmHg 87%
    20:00 +25°C° 0 mm 0 mps 720 mmHg 88%
    21:00 +24°C° 0 mm 0 mps 720 mmHg 89%
    22:00 +24°C° 0 mm 0 mps 720 mmHg 89%
    23:00 +23°C° 0 mm 0 mps 720 mmHg 89%
    Show more